Location: Belfast
(54.5830°N, 5.9330°W)
Time: 13:37:54
(UTC+01:00)

ISS - Pass Details

Date: 24 May 2018
Orbit: 402 x 407 km, 51.6° (Epoch: 22 May)

Event Time Altitude Azimuth Distance (km) Brightness Sun altitude
Rises 23:24:58 0° 251° (WSW) 2,319 0.1 -10.6°
Reaches altitude 10° 23:27:05 10° 246° (WSW) 1,459 -1.0 -10.7°
Maximum altitude 23:30:14 46° 172° (S) 552 -3.6 -10.9°
Drops below altitude 10° 23:33:23 10° 97° (E) 1,460 -1.3 -11.1°
Sets 23:35:30 0° 91° (E) 2,319 -0.2 -11.2°
Enters shadow 23:35:39 -1° 91° (E) 2,378 -0.2 -11.2°
